Regional Weather Roundup
Issued by NWS

Home | Current Version | Previous Version | Graphics & Text | Print | Product List | Glossary Off
Versions: 1 2 3 4 5 6 7 8 9 10 11 12 13 14 15 16 17 18 19 20 21 22 23 24 25 26 27 28 29 30 31 32 33 34 35 36 37 38 39 40 41 42 43 44 45 46 47 48 49 50

000
ASUS43 KDTX 200501
RWRMI
MICHIGAN HOURLY REGIONAL WEATHER ROUNDUP
NATIONAL WEATHER SERVICE DETROIT/PONTIAC MI
100 AM EDT SUN AUG 20 2017

NOTE: "FAIR" INDICATES FEW OR NO CLOUDS BELOW 12,000 FEET WITH NO
SIGNIFICANT WEATHER AND/OR OBSTRUCTION TO VISIBILITY.

MIZ047>049-052>055-059>063-066>070-074>076-081>083-200600-
SOUTHEAST LOWER MICHIGAN

CITY           SKY/WX    TMP DP  RH WIND       PRES   REMARKS
ADRIAN         CLEAR     61  59  93 CALM      30.04R
ALMA           CLEAR     59  58  96 CALM      30.01S FOG
ANN ARBOR      CLEAR     54  54 100 CALM      30.03R FOG
BAD AXE        CLEAR     61  58  90 CALM      29.99R
CARO           CLEAR     58  57  95 CALM      29.99R
DETROIT CITY   CLEAR     66  59  78 CALM      30.01R
DETROIT        CLEAR     66  60  81 S5        30.03R
FLINT          CLEAR     63  59  87 SW3       30.02R
GROSSE ILE     CLEAR     65  60  82 CALM      30.01R
HILLSDALE      MOCLDY    57  55  94 CALM      30.03S
HOWELL         CLEAR     61  58  89 SW3       30.03R

CITY           SKY/WX    TMP DP  RH WIND       PRES   REMARKS
JACKSON        LGT RAIN  61  59  93 SW3       30.03R
LAMBERTVILLE   CLEAR     60  59  97 CALM      30.02R
LANSING        CLEAR     62  58  86 CALM      30.03R
LAPEER         FAIR      60  59  96 CALM      30.02R
MASON          CLEAR     60  57  91 CALM      30.03R
MONROE         CLEAR     60  59  97 CALM      30.02R
MT. CLEMENS    CLEAR     63  58  82 SW7       29.99R
PONTIAC        CLEAR     65  60  84 W3        30.01R
PORT HOPE        N/A     67  61  81 W3        29.95R
PORT HURON       N/A     57  57 100 CALM      30.01R FOG
TRI CITIES     CLEAR     64  61  90 W8        30.00R
MIDLAND        FAIR      64  60  88 CALM      29.99R
TROY           CLEAR     68  57  67 SW3       30.03R
SAGINAW HB     CLEAR     63  61  94 SW6       29.99S
$$
MIZ043>046-050>051-056>058-064>065-071>073-077>080-200600-
SOUTHWEST LOWER MICHIGAN

CITY           SKY/WX    TMP DP  RH WIND       PRES   REMARKS
BATTLE CREEK   CLEAR     64  59  83 CALM      30.03R
BENTON HARBOR  CLEAR     58  56  93 E3        30.01R
BIG RAPIDS     CLEAR     59  57  92 CALM      30.00S
COLDWATER      CLEAR     60  60 100 CALM      30.03S
FREMONT        FAIR      59  59 100 CALM      30.00R FOG
HOLLAND        CLEAR     61  59  93 CALM      30.01R
GRAND RAPIDS   CLEAR     62  59  90 CALM      30.01R
IONIA          FAIR      61  58  90 CALM      30.01R
KALAMAZOO      CLEAR     59  55  87 CALM      30.03R
LUDINGTON      CLEAR     68  61  78 SW8       29.97S
MARSHALL       CLEAR     59  58  97 CALM      30.03R
MOUNT PLEASANT CLEAR     64  60  87 SW3       29.99S
MUSKEGON         N/A     65  63  93 CALM      30.00R
SOUTH HAVEN    CLEAR     60  59  96 CALM      30.01S
$$
MIZ016>042-200600-
NORTHERN LOWER MICHIGAN

CITY           SKY/WX    TMP DP  RH WIND       PRES   REMARKS
ALPENA         MOCLDY    59  59 100 CALM      29.95R
BEAVER ISLAND  CLEAR     66  64  95 S6        29.93R
BELLAIRE       PTCLDY    65  63  93 CALM      29.95R
CADILLAC       CLEAR     64  60  90 SW5       30.00R
CHARLEVOIX     CLEAR     65  65 100 SE3       29.97R
FRANKFORT      CLEAR     70  67  92 SW5       29.96R
GAYLORD        MOCLDY    64  60  87 SW6       29.98R
GRAYLING       PTCLDY    63  59  86 SW3       29.99R
HARBOR SPRINGS CLEAR     63  62  94 CALM      29.94R
HOUGHTON LAKE  PTCLDY    66  61  84 SW6       30.00R
MANISTEE       CLEAR     60  59  96 E5        29.97R
OSCODA         CLOUDY    65  62  88 SW5       29.95R
PELLSTON       CLEAR     59  58  96 CALM      29.93S
ROGERS CITY    CLEAR     64  60  88 SW7       29.94S
TRAVERSE CITY  CLEAR     68  61  78 SW5       29.94R
$$
MIZ007>008-015-200600-
EASTERN UPPER MICHIGAN

CITY           SKY/WX    TMP DP  RH WIND       PRES   REMARKS
KINROSS        FOG       60  60 100 CALM      29.92S VSB 3/4
MACKINAC ISLAN CLEAR     64  64 100 SW6       29.92S
NEWBERRY       CLEAR     60  59  97 SW5       29.92R
S. S. MARIE    CLEAR     60  57  89 CALM      29.91R
MUNISING         N/A     63  63 100 S7        29.90R
$$
MIZ004>006-011>014-085-200600-
CENTRAL UPPER MICHIGAN

CITY           SKY/WX    TMP DP  RH WIND       PRES   REMARKS
MANISTIQUE     HAZE      56  50  81 CALM      29.92R VSB<1/4
ESCANABA       CLEAR     61  61 100 CALM      29.92R FOG
MENOMINEE      CLEAR     66  61  84 W3        29.94R
SAWYER-GWINN   CLEAR     61  60  97 CALM      29.94R
$$
MIZ001>003-009>011-084-200600-
WESTERN UPPER MICHIGAN

CITY           SKY/WX    TMP DP  RH WIND       PRES   REMARKS
IRON MOUNTAIN  CLEAR     60  56  86 CALM      29.93R
HOUGHTON         N/A    N/A N/A N/A MISG      29.88R
COPPER HARBOR    N/A     65  56  72 VRB7      29.86R
IRONWOOD       CLEAR     66  60  81 SW5       29.93R
$$

ABBREVIATIONS USED IN REMARKS
   TC - TEMPERATURE IN CELSIUS
  WCI - WIND CHILL INDEX
   HX - HEAT INDEX
  VSB - VISIBILITY





USA.gov is the U.S. government's official web portal to all federal, state and local government web resources and services.